Weather History for Worland, WY

Change the Weather History Date:

Sunday, November 11, 2012

  Actual Average Record
Temperature  
Mean Temperature 0 °F 33 °F  
Max Temperature 12 °F 47 °F 73 °F (1989)
Min Temperature -13 °F 20 °F -13 °F (2012)
Degree Days  
Heating Degree Days 65 32  
Month to date heating degree days 308 317  
Since 1 July heating degree days 1014 1179  
Cooling Degree Days 0 0  
Month to date cooling degree days 0 0  
Year to date cooling degree days 901 535  
Moisture  
Dew Point -4 °F    
Average Humidity 84    
Maximum Humidity 95    
Minimum Humidity 73    
Precipitation  
Precipitation T in 0.01 in 0.11 in (1978)
Month to date precipitation 0.50 0.14  
Year to date precipitation 2.55 7.13  
Sea Level Pressure  
Sea Level Pressure 30.34 in    
Wind  
Wind Speed 3 mph (South)    
Max Wind Speed 8 mph    
Max Gust Speed 13 mph    
Visibility 10 miles    
Events Snow    
T = Trace of Precipitation, MM = Missing Value Source: NWS Daily Summary

Daily Weather History Graph

Daily Weather History Graph

Search for Another Location

Airport:

Trip Planner

Search our weather history database for the weather conditions in past years. The results will help you decide how hot, cold, wet, or windy it might be!

Date:

Astronomy

Nov. 11, 2012 Rise Set
Actual Time 7:02 AM MST 4:49 PM MST
Civil Twilight 6:31 AM MST 5:19 PM MST
Nautical Twilight 5:56 AM MST 5:54 PM MST
Astronomical Twilight 5:22 AM MST 6:28 PM MST
Moon 4:15 AM MST (11/11) 3:17 PM MST (11/11)
Length of Visible Light 10h 48m
Length of Day
9h 46m
Waning Crescent, 7% of the Moon is Illuminated
Nov 11
Waning Crescent
Nov 13
New
Nov 20
First Quarter
Nov 28
Full
Dec 6
Last Quarter

Hourly Weather History & Observations

Time (MST) Temp. Windchill Dew Point Humidity Pressure Visibility Wind Dir Wind Speed Gust Speed Precip Events Conditions
12:53 AM 1.9 °F -11.8 °F -0.0 °F 91% 30.18 in 10.0 mi South 8.1 mph - N/A   Clear
1:53 AM -0.0 °F - -2.0 °F 91% 30.19 in 10.0 mi Calm Calm - N/A   Clear
2:53 AM -2.9 °F - -5.1 °F 90% 30.21 in 9.0 mi Calm Calm - N/A   Clear
3:53 AM -8.0 °F - -9.9 °F 91% 30.23 in 4.0 mi Calm Calm - N/A   Clear
4:53 AM -5.1 °F - -8.0 °F 87% 30.24 in 10.0 mi Calm Calm - N/A   Clear
5:53 AM -9.0 °F - -11.9 °F 87% 30.25 in 9.0 mi Calm Calm - 0.00 in   Clear
6:53 AM -7.1 °F -22.8 °F -11.9 °F 79% 30.26 in 10.0 mi South 8.1 mph - N/A   Clear
7:53 AM -7.1 °F -22.8 °F -9.9 °F 87% 30.29 in 10.0 mi South 8.1 mph - N/A   Clear
8:53 AM -2.9 °F -11.2 °F -6.0 °F 87% 30.29 in 10.0 mi SW 3.5 mph - N/A   Clear
9:53 AM -0.0 °F -7.9 °F -2.9 °F 88% 30.31 in 10.0 mi SSW 3.5 mph - N/A   Clear
10:53 AM 3.9 °F - -2.0 °F 76% 30.28 in 10.0 mi Calm Calm - N/A   Clear
11:53 AM 6.1 °F - 1.0 °F 80% 30.29 in 10.0 mi Calm Calm - 0.00 in   Clear
12:53 PM 9.0 °F - 1.9 °F 73% 30.30 in 10.0 mi Calm Calm - N/A   Clear
1:53 PM 9.0 °F - 3.9 °F 80% 30.32 in 10.0 mi Calm Calm - 0.00 in Snow Light Snow
2:53 PM 10.0 °F - 5.0 °F 80% 30.34 in 10.0 mi Calm Calm - 0.00 in   Clear
3:53 PM 8.1 °F - 3.9 °F 83% 30.39 in 10.0 mi Calm Calm - 0.00 in Snow Light Snow
4:53 PM 3.0 °F -10.5 °F -0.0 °F 87% 30.40 in 10.0 mi South 8.1 mph - 0.00 in   Clear
6:53 PM -0.0 °F - -2.9 °F 88% 30.45 in 10.0 mi Calm Calm - N/A   Clear
7:53 PM -4.0 °F -12.4 °F -7.1 °F 87% 30.49 in 10.0 mi SSE 3.5 mph - N/A   Clear
8:53 PM -2.9 °F -17.7 °F -6.0 °F 87% 30.49 in 10.0 mi South 8.1 mph - N/A   Clear
9:53 PM -2.9 °F - -8.0 °F 79% 30.50 in 10.0 mi Calm Calm - N/A   Clear
10:53 PM -11.9 °F -21.5 °F -16.1 °F 82% 30.52 in 10.0 mi South 3.5 mph - N/A   Clear
11:53 PM -5.1 °F -21.5 °F -9.0 °F 83% 30.50 in 10.0 mi South 9.2 mph - N/A   Clear